Regional Weather Roundup
Issued by NWS

Home | Current Version | Previous Version | Text Only | Print | Product List | Glossary On
Versions: 1 2 3 4 5 6 7 8 9 10 11 12 13 14 15 16 17 18 19 20 21 22 23 24 25 26 27 28 29 30 31 32 33 34 35 36 37 38 39 40 41 42 43 44 45 46 47 48 49 50
000
ASUS42 KTBW 020310
RWRFL
FLORIDA REGIONAL WEATHER ROUNDUP
NATIONAL WEATHER SERVICE TAMPA BAY RUSKIN FL
1100 PM EDT MON SEP 01 2014

NOTE: "FAIR" INDICATES FEW OR NO CLOUDS BELOW 12,000 FEET WITH NO
SIGNIFICANT WEATHER AND/OR OBSTRUCTIONS TO VISIBILITY.


FLZ001>010-012>015-112-114-115-020400-
PANHANDLE FLORIDA

CITY           SKY/WX    TMP DP  RH WIND       PRES   REMARKS
PENSACOLA      MOCLDY    81  75  82 S7        30.08S
PENSACOLA NAS  MOCLDY    84  76  76 S8        30.07S
MILTON NAS     MOCLDY    77  74  90 CALM      30.09R
CRESTVIEW      PTCLDY    77  73  87 CALM      30.11S
DUKE FIELD     FAIR      79  76  91 S3        30.09S
VALPARAISO     PTCLDY    84  75  75 S3        30.08F
MARY ESTHER    PTCLDY    84  72  67 SE3       30.07F
TRI COUNTY     FAIR      75  73  93 CALM      30.11R
PANAMA CITY    FAIR      78  75  90 CALM      30.09S
TYNDALL AFB    PTCLDY    79  77  93 CALM      30.10S
APALACHICOLA   CLEAR     78  75  90 CALM      30.09S

STATION/POSITION SKY/WX   TEMP    WIND        PRES    WAVE   SWELL
                          AIR SEA DIR/SP/G            HT/PER HT/PER
                          (F)     (DEG/KT/KT) (MB)    (FT/S) (FT/S)
30.1N   87.6W              85 86  160/ 10/ 10 1018.3S   3/ 7   3/ 7
29.2N   88.2W              84 85  150/  4/  6 1018.1R
28.8N   86.0W              84 86  150/  4/  4 1018.3R   3/ 6   3/ 6
PANAMA CITY BEAC           85 87  190/  4/  5 1019.0F
CAPE SAN BLAS    NOT AVBL
TOWER C                    83      CALM  /  4 1019.0R
28.5N   84.5W              85 86   CALM  /  2 1018.9R   2/ 5   2/ 5

$$
FLZ011-016>038-118-127-128-134-139-239-020400-
NORTH FLORIDA

CITY           SKY/WX    TMP DP  RH WIND       PRES   REMARKS
MARIANNA       CLEAR     79  74  84 S5        30.09R
TALLAHASSEE    PTCLDY    80  74  81 NW3       30.11R
PERRY          CLEAR     77  73  88 CALM      30.11R
CROSS CITY       N/A     80  76  87 E5        30.11R
LAKE CITY      FAIR      77  72  83 SW3       30.12R
GAINESVILLE    PTCLDY    76  74  93 CALM      30.12R
MAYPORT NAS    CLEAR     81  75  82 S6        30.11R
JACKSONVILLE   PTCLDY    79  74  84 S5        30.10S
JAX NAS        PTCLDY    86  74  67 S10       30.12R
JAX CRAIG      CLEAR     80  74  81 S5        30.11R
JAX CECIL      CLEAR     77  73  88 CALM      30.12R
FERNANDINA BEA FAIR      82  72  69 S5        30.10R
ST AUGUSTINE   CLEAR     81  75  82 CALM      30.12R

STATION/POSITION SKY/WX   TEMP    WIND        PRES    WAVE   SWELL
                          AIR SEA DIR/SP/G            HT/PER HT/PER
                          (F)     (DEG/KT/KT) (MB)    (FT/S) (FT/S)
SHELL POINT                83     320/  5/  8   N/A
KEATON BEACH               85     290/  8/ 10 1019.6R
CEDAR KEY                  85      CALM  /  2 1019.3R
FERNANDINA                 83 89  180/  4/  5 1018.8S
30.7N   81.3W                 85                N/A     2/ 8
MAYPORT                    82 86  200/  3/  4   N/A
31.4N   80.9W              84 85  160/ 10/ 12 1019.5R   2/ 9   2/ 9
ST AUGUSTINE               83     170/ 14/ 14 1020.5R

$$
FLZ040-043>046-052-053-057-058-063-144-020400-
INTERIOR CENTRAL FLORIDA

CITY           SKY/WX    TMP DP  RH WIND       PRES   REMARKS
OCALA          PTCLDY    79  72  78 SW6       30.13R
LEESBURG       CLEAR     80  75  84 NW3       30.13R
SANFORD        CLEAR     80  75  84 SE3       30.11R
ORLANDO EXEC   CLEAR     81  74  79 SE5       30.12R
ORLANDO INTL   PTCLDY    79  75  87 E6        30.12R
WINTER HAVEN   CLEAR     82  74  76 SW6       30.13R
LAKELAND       CLOUDY    79  72  78 CALM      30.12R
BARTOW         FAIR      77  75  94 SW3       30.13R
OKEECHOBEE       N/A     75  72  88 MISG      30.11R

$$
FLZ041-047-054-059-064-141-147-020400-
EAST CENTRAL FLORIDA

CITY           SKY/WX    TMP DP  RH WIND       PRES   REMARKS
DAYTONA BEACH  PTCLDY    80  74  81 CALM      30.12R
DELAND         CLEAR     81  73  78 SE5       30.13R
JFK SPACE CTR  CLEAR     79  74  85 E1        30.11R
CAPE CANAVERAL CLEAR     79  73  81 SE5       30.11R
PATRICK AFB    CLEAR     83  74  74 SE9       30.11R
MELBOURNE      CLEAR     84  73  69 E10       30.10R
VERO BEACH     CLEAR     80  71  74 E6        30.10R
FT PIERCE      PTCLDY    82  73  74 E8        30.10R
STUART         PTCLDY    81  72  74 SE5       30.11R

STATION/POSITION SKY/WX   TEMP    WIND        PRES    WAVE   SWELL
                          AIR SEA DIR/SP/G            HT/PER HT/PER
                          (F)     (DEG/KT/KT) (MB)    (FT/S) (FT/S)
28.5N   80.2W              84 87  120/  8/ 12 1019.7R
28.9N   78.5W              83 85  130/  6/  8 1020.1R   3/ 8   3/ 8
TRIDENT PIER               83 87  120/  4/  6 1019.1R
28.4N   80.5W                 85                N/A     2/ 8
27.6N   80.2W                 86                N/A     2/ 8

$$
FLZ050-056-061-142-242-148-248-149-249-151-251-155-255-
160-260-020400-
WEST CENTRAL FLORIDA

CITY           SKY/WX    TMP DP  RH WIND       PRES   REMARKS
CRYSTAL RIVER  FAIR      73  72  94 CALM      30.10F THUNDER
INVERNESS      FAIR      73  72  94 CALM      30.11S
BROOKSVILLE    CLOUDY    76  71  85 N3        30.13R
ZEPHYRHILLS    MOCLDY    77  73  88 NE3       30.13R
CLEARWATER     CLOUDY    81  73  76 NE6       30.11R THUNDER
TAMPA INTL     CLOUDY    77  73  87 E5        30.11R
TAMPA EXEC     MOCLDY    79  73  83 CALM      30.11F
PLANT CITY     CLOUDY    82  72  69 N3        30.14S
MACDILL AFB    CLOUDY    75  75  98 NE1       30.11R
ST PETERSBURG  CLOUDY    82  75  79 N5        30.09R
SARASOTA         N/A     83  75  77 CALM      30.09R
VENICE           N/A    N/A N/A N/A MISG        N/A

STATION/POSITION SKY/WX   TEMP    WIND        PRES    WAVE   SWELL
                          AIR SEA DIR/SP/G            HT/PER HT/PER
                          (F)     (DEG/KT/KT) (MB)    (FT/S) (FT/S)
CEDAR KEY                  85      CALM  /  2 1019.3R
28.5N   84.5W              85 86   CALM  /  2 1018.9R   2/ 5   2/ 5
27.3N   84.3W                 87                N/A     3/ 8
CLEARWATER BEACH           81 89  110/  4/  6 1019.1S
MIDDLE TAMPA BAY           81      10/  2/  3 1019.7R
VENICE                     76 88   70/  5/  6 1019.0R

$$
FLZ066-069-070-075>078-162-262-165-265-020400-
SOUTHWEST FLORIDA AND KEYS

CITY           SKY/WX    TMP DP  RH WIND       PRES   REMARKS
PUNTA GORDA    CLEAR     77  75  93 NE6       30.12R
FT MYERS       CLEAR     76  73  91 NE5       30.08S
SOUTHWEST INTL CLEAR     78  73  84 CALM      30.09R
NAPLES         CLEAR     77  76  96 E3        30.08R
MARCO ISLAND   CLEAR     77  75  94 N5        30.08R
MARATHON       PTCLDY    85  77  77 E7        30.06R HX  95
KEY WEST NAS   CLEAR     83  76  79 E7        30.07R
KEY WEST INTL  CLEAR     85  75  72 E8        30.07R

STATION/POSITION SKY/WX   TEMP    WIND        PRES    WAVE   SWELL
                          AIR SEA DIR/SP/G            HT/PER HT/PER
                          (F)     (DEG/KT/KT) (MB)    (FT/S) (FT/S)
VENICE                     76 88   70/  5/  6 1019.0R
NAPLES                     77      80/  5/  6 1019.1R
DRY TORTUGAS               85     120/  9/ 10 1017.8R
NW FL BAY                  87     110/  9/ 11 1017.6R
SAND KEY                   85      90/ 12/ 14 1017.7R
SOMBRERO KEY               84      90/ 12/ 13 1018.7R
LONG KEY                   85 87  100/  9/ 10 1018.4R
MOLASSES REEF              85 87  100/ 11/ 13 1017.9R

$$
FLZ067-068-071>074-168-172>174-020400-
SOUTHEAST FLORIDA

CITY           SKY/WX    TMP DP  RH WIND       PRES   REMARKS
W PALM BEACH   PTCLDY    84  73  69 E8        30.09R
FT LAUDER-EXEC CLEAR     84  75  74 E8        30.08R
FT LAUDERDALE  PTCLDY    84  75  74 E9        30.08R
POMPANO BEACH  PTCLDY    85  73  67 E9        30.09R
PEMBROKE PINES PTCLDY    83  74  74 E6        30.10R
OPA LOCKA      CLEAR     83  73  72 E6        30.09R
MIAMI          PTCLDY    83  74  74 E9        30.09R
WEST KENDALL   CLEAR     82  74  76 NE5       30.09R
HOMESTEAD      CLEAR     82  75  78 NE5       30.08R

STATION/POSITION SKY/WX   TEMP    WIND        PRES    WAVE   SWELL
                          AIR SEA DIR/SP/G            HT/PER HT/PER
                          (F)     (DEG/KT/KT) (MB)    (FT/S) (FT/S)
PORT EVERGLADES            85      90/  6/  9 1018.6
VIRGINIA KEY               84 87   90/  9/ 11   N/A
LAKE WORTH                 84 87  100/  9/ 11 1018.9R
FOWEY ROCKS                84 87   80/ 13/ 13 1019.0R
SETTLEMENT POINT           81     130/  6/  7 1019.9R

$$



USA.gov is the U.S. government's official web portal to all federal, state and local government web resources and services.